Weather History for KJHW - June, 2013

Change the Weather History Date:

Saturday, June 29, 2013

  Actual Average Record
Temperature  
Mean Temperature 64 °F -  
Max Temperature 69 °F 78 °F 91 °F (1991)
Min Temperature 59 °F 53 °F 45 °F (1974)
Degree Days  
Heating Degree Days 1    
Growing Degree Days 14 (Base 50)    
Moisture  
Dew Point 59 °F    
Average Humidity 88    
Maximum Humidity 100    
Minimum Humidity 64    
Precipitation  
Precipitation 1.60 in - - ()
Sea Level Pressure  
Sea Level Pressure 29.62 in    
Wind  
Wind Speed 5 mph (West)    
Max Wind Speed 10 mph    
Max Gust Speed -    
Visibility 6 miles    
Events      
Averages and records for this station are not official NWS values.
T = Trace of Precipitation, MM = Missing Value Source: NWS Daily Summary

Daily Weather History Graph

Daily Weather History Graph

Search for Another Location

Airport or City:

Trip Planner

Search our weather history database for the weather conditions in past years. The results will help you decide how hot, cold, wet, or windy it might be!

Date:

Astronomy

Jun. 29, 2013 Rise Set
Actual Time 5:43 AM EDT 8:57 PM EDT
Civil Twilight 5:09 AM EDT 9:31 PM EDT
Nautical Twilight 4:24 AM EDT 10:15 PM EDT
Astronomical Twilight 3:31 AM EDT 11:09 PM EDT
Moon 12:17 AM EDT (6/29) 1:01 PM EDT (6/29)
Length of Visible Light 16h 22m
Length of Day
15h 13m
Waning Gibbous, 56% of the Moon is Illuminated
Jun 29
Waning Gibbous
Jun 30
Last Quarter
Jul 8
New
Jul 15
First Quarter
Jul 22
Full

Hourly Weather History & Observations

Time (EDT) Temp. Dew Point Humidity Pressure Visibility Wind Dir Wind Speed Gust Speed Precip Events Conditions
12:15 AM 59.0 °F 57.2 °F 94% 29.56 in 0.8 mi SSW 5.8 mph - N/A   Overcast
12:35 AM 59.0 °F 57.2 °F 94% 29.56 in 8.0 mi SW 4.6 mph - N/A   Mostly Cloudy
12:55 AM 59.0 °F 57.2 °F 94% 29.56 in 3.0 mi SW 3.5 mph - N/A   Scattered Clouds
1:15 AM 59.0 °F 57.2 °F 94% 29.56 in 6.0 mi South 4.6 mph - N/A   Mostly Cloudy
1:35 AM 59.0 °F 57.2 °F 94% 29.56 in 1.0 mi SSE 5.8 mph - N/A   Overcast
1:55 AM 59.0 °F 57.2 °F 94% 29.55 in 1.5 mi South 5.8 mph - N/A   Overcast
2:15 AM 59.0 °F 57.2 °F 94% 29.55 in 5.0 mi South 4.6 mph - N/A   Overcast
2:35 AM 60.8 °F 57.2 °F 88% 29.55 in 5.0 mi SSW 5.8 mph - N/A   Overcast
2:55 AM 60.8 °F 59.0 °F 94% 29.55 in 5.0 mi South 4.6 mph - N/A   Overcast
3:15 AM 60.8 °F 57.2 °F 88% 29.54 in 5.0 mi SW 5.8 mph - N/A   Overcast
3:35 AM 60.8 °F 59.0 °F 94% 29.54 in 7.0 mi SW 6.9 mph - N/A   Overcast
3:55 AM 60.8 °F 59.0 °F 94% 29.54 in 6.0 mi SW 6.9 mph - N/A   Overcast
4:15 AM 60.8 °F 59.0 °F 94% 29.54 in 5.0 mi SSW 4.6 mph - N/A   Overcast
4:35 AM 60.8 °F 59.0 °F 94% 29.54 in 5.0 mi SW 5.8 mph - N/A   Overcast
4:55 AM 60.8 °F 59.0 °F 94% 29.54 in 5.0 mi SSW 5.8 mph - 0.01 in   Overcast
5:15 AM 60.8 °F 59.0 °F 94% 29.54 in 5.0 mi SW 6.9 mph - N/A   Overcast
5:35 AM 60.8 °F 59.0 °F 94% 29.55 in 5.0 mi SW 5.8 mph - 0.01 in   Overcast
5:55 AM 60.8 °F 59.0 °F 94% 29.55 in 5.0 mi SSW 6.9 mph - 0.01 in   Overcast
6:15 AM 60.8 °F 59.0 °F 94% 29.55 in 4.0 mi SW 5.8 mph - 0.01 in   Overcast
6:35 AM 60.8 °F 59.0 °F 94% 29.56 in 4.0 mi SW 6.9 mph - 0.03 in   Overcast
6:55 AM 60.8 °F 59.0 °F 94% 29.56 in 5.0 mi SW 6.9 mph - 0.06 in   Overcast
7:15 AM 60.8 °F 59.0 °F 94% 29.57 in 5.0 mi SW 5.8 mph - 0.01 in   Overcast
7:35 AM 60.8 °F 59.0 °F 94% 29.57 in 3.0 mi SSW 6.9 mph - 0.06 in   Overcast
7:55 AM 60.8 °F 59.0 °F 94% 29.57 in 5.0 mi SW 8.1 mph - 0.15 in   Overcast
8:15 AM 60.8 °F 59.0 °F 94% 29.58 in 4.0 mi SSW 5.8 mph - 0.15 in   Overcast
8:35 AM 60.8 °F 59.0 °F 94% 29.58 in 5.0 mi SSW 5.8 mph - 0.26 in   Overcast
8:55 AM 60.8 °F 60.8 °F 100% 29.58 in 2.5 mi Calm Calm - 0.49 in   Overcast
9:15 AM 60.8 °F 59.0 °F 94% 29.58 in 1.5 mi Calm Calm - 0.35 in   Overcast
9:35 AM 62.6 °F 60.8 °F 94% 29.59 in 5.0 mi Calm Calm - 0.37 in   Overcast
9:55 AM 62.6 °F 60.8 °F 94% 29.59 in 10.0 mi North 5.8 mph - 0.38 in   Overcast
10:15 AM 62.6 °F 60.8 °F 94% 29.60 in 10.0 mi North 6.9 mph - N/A   Overcast
10:35 AM 62.6 °F 60.8 °F 94% 29.60 in 10.0 mi NNW 5.8 mph - N/A   Overcast
10:55 AM 62.6 °F 60.8 °F 94% 29.61 in 10.0 mi North 9.2 mph - N/A   Overcast
11:15 AM 64.4 °F 60.8 °F 88% 29.61 in 10.0 mi NW 9.2 mph - N/A   Overcast
11:35 AM 64.4 °F 60.8 °F 88% 29.62 in 10.0 mi NW 8.1 mph - N/A   Overcast
11:55 AM 64.4 °F 60.8 °F 88% 29.62 in 10.0 mi North 6.9 mph - N/A   Overcast
12:15 PM 64.4 °F 60.8 °F 88% 29.62 in 10.0 mi North 10.4 mph - N/A   Overcast
12:35 PM 66.2 °F 60.8 °F 83% 29.62 in 10.0 mi North 9.2 mph - N/A   Overcast
12:55 PM 66.2 °F 59.0 °F 78% 29.63 in 10.0 mi North 5.8 mph - N/A   Mostly Cloudy
1:15 PM 66.2 °F 60.8 °F 83% 29.63 in 10.0 mi North 8.1 mph - N/A   Mostly Cloudy
1:35 PM 68.0 °F 59.0 °F 73% 29.63 in 10.0 mi NNW 9.2 mph - N/A   Mostly Cloudy
1:55 PM 66.2 °F 59.0 °F 78% 29.63 in 10.0 mi NNW 6.9 mph - N/A   Overcast
2:15 PM 69.8 °F 59.0 °F 68% 29.63 in 10.0 mi North 10.4 mph - N/A   Mostly Cloudy
2:35 PM 69.8 °F 60.8 °F 73% 29.63 in 10.0 mi North 8.1 mph - N/A   Mostly Cloudy
2:55 PM 69.8 °F 57.2 °F 64% 29.64 in 10.0 mi NNW 8.1 mph - N/A   Mostly Cloudy
3:15 PM 69.8 °F 57.2 °F 64% 29.64 in 10.0 mi North 10.4 mph - N/A   Overcast
3:35 PM 69.8 °F 59.0 °F 68% 29.65 in 10.0 mi NNW 9.2 mph - N/A   Mostly Cloudy
3:55 PM 69.8 °F 59.0 °F 68% 29.65 in 10.0 mi North 8.1 mph - N/A   Mostly Cloudy
4:15 PM 69.8 °F 60.8 °F 73% 29.66 in 10.0 mi NNW 4.6 mph - N/A   Mostly Cloudy
4:35 PM 69.8 °F 59.0 °F 68% 29.65 in 10.0 mi NW 4.6 mph - N/A   Mostly Cloudy
4:55 PM 69.8 °F 59.0 °F 68% 29.66 in 10.0 mi North 5.8 mph - N/A   Mostly Cloudy
5:15 PM 69.8 °F 59.0 °F 68% 29.66 in 10.0 mi North 3.5 mph - N/A   Mostly Cloudy
5:35 PM 66.2 °F 60.8 °F 83% 29.67 in 10.0 mi SSW 5.8 mph - N/A   Overcast
5:55 PM 64.4 °F 60.8 °F 88% 29.68 in 5.0 mi SW 4.6 mph - 0.03 in   Overcast
6:15 PM 62.6 °F 60.8 °F 94% 29.68 in 6.0 mi WSW 8.1 mph - 0.19 in   Overcast
6:35 PM 62.6 °F 60.8 °F 94% 29.69 in 7.0 mi Calm Calm - 0.44 in   Overcast
6:55 PM 62.6 °F 60.8 °F 94% 29.70 in 8.0 mi Calm Calm - 0.46 in   Overcast
7:15 PM 62.6 °F 60.8 °F 94% 29.70 in 9.0 mi Calm Calm - 0.01 in   Overcast
7:35 PM 64.4 °F 60.8 °F 88% 29.70 in 10.0 mi Calm Calm - 0.01 in   Overcast
7:55 PM 64.4 °F 60.8 °F 88% 29.70 in 10.0 mi Calm Calm - 0.01 in   Mostly Cloudy
8:15 PM 62.6 °F 60.8 °F 94% 29.71 in 10.0 mi Calm Calm - N/A   Overcast
8:35 PM 62.6 °F 60.8 °F 94% 29.71 in 10.0 mi Calm Calm - N/A   Overcast
8:55 PM 62.6 °F 60.8 °F 94% 29.71 in 0.2 mi Calm Calm - N/A   Overcast
9:15 PM 62.6 °F 60.8 °F 94% 29.72 in 0.2 mi Calm Calm - N/A   Overcast
9:35 PM 62.6 °F 60.8 °F 94% 29.73 in 2.5 mi Calm Calm - N/A   Mostly Cloudy
9:55 PM 62.6 °F 60.8 °F 94% 29.74 in 3.0 mi Calm Calm - N/A   Mostly Cloudy
10:15 PM 62.6 °F 60.8 °F 94% 29.75 in 10.0 mi SW 3.5 mph - N/A   Partly Cloudy
10:35 PM 60.8 °F 59.0 °F 94% 29.75 in 0.2 mi Calm Calm - N/A   Overcast
10:55 PM 62.6 °F 60.8 °F 94% 29.75 in 0.2 mi Calm Calm - N/A   Overcast
11:15 PM 60.8 °F 59.0 °F 94% 29.75 in 0.5 mi Calm Calm - N/A   Overcast
11:35 PM 60.8 °F 57.2 °F 88% 29.75 in 0.5 mi Calm Calm - N/A   Overcast
11:55 PM 62.6 °F 60.8 °F 94% 29.75 in 5.0 mi Calm Calm - N/A   Scattered Clouds